Harlingen, TX

5:04 PM CST on November 23, 2017 (GMT -0600)
Valley International

Weather History for KHRL - November, 2013

Change the Weather History Date:

Wednesday, November 6, 2013

  Actual Average Record
Temperature  
Mean Temperature 78 °F 71 °F  
Max Temperature 88 °F 83 °F 92 °F (1945)
Min Temperature 68 °F 60 °F 40 °F (1920)
Degree Days  
Heating Degree Days 0 1  
Month to date heating degree days 0 1  
Since 1 July heating degree days 0 4  
Cooling Degree Days 13 7  
Month to date cooling degree days 46 45  
Year to date cooling degree days 3943 3821  
Growing Degree Days 28 (Base 50)    
Moisture  
Dew Point 70 °F    
Average Humidity 79    
Maximum Humidity 100    
Minimum Humidity 57    
Precipitation  
Precipitation 1.10 in 0.09 in 2.13 in (1959)
Month to date precipitation 1.68 0.53  
Year to date precipitation 23.49 22.95  
Sea Level Pressure  
Sea Level Pressure 30.05 in    
Wind  
Wind Speed 8 mph (ENE)    
Max Wind Speed 25 mph    
Max Gust Speed 31 mph    
Visibility 8 miles    
Events Rain    
T = Trace of Precipitation, MM = Missing Value Source: NWS Daily Summary

Daily Weather History Graph

Daily Weather History Graph

Search for Another Location

Airport or City:

Trip Planner

Search our weather history database for the weather conditions in past years. The results will help you decide how hot, cold, wet, or windy it might be!

Date:

Astronomy

Nov. 06, 2013 Rise Set
Actual Time 6:43 AM CST 5:45 PM CST
Civil Twilight 6:19 AM CST 6:09 PM CST
Nautical Twilight 5:51 AM CST 6:36 PM CST
Astronomical Twilight 5:24 AM CST 7:03 PM CST
Moon 9:51 AM CST (11/6) 8:57 PM CST (11/6)
Length of Visible Light 11h 50m
Length of Day
11h 02m
Waxing Crescent, 14% of the Moon is Illuminated
Nov 6
Waxing Crescent
Nov 9
First Quarter
Nov 17
Full
Nov 25
Last Quarter
Dec 2
New

Hourly Weather History & Observations

Time (CST) Temp. Heat Index Dew Point Humidity Pressure Visibility Wind Dir Wind Speed Gust Speed Precip Events Conditions
12:52 AM 72.0 °F - 71.1 °F 97% 29.95 in 10.0 mi SE 5.8 mph - N/A   Clear
1:52 AM 71.1 °F - 70.0 °F 96% 29.94 in 6.0 mi Calm Calm - N/A   Partly Cloudy
2:52 AM 71.1 °F - 69.1 °F 93% 29.94 in 6.0 mi East 4.6 mph - N/A   Partly Cloudy
3:52 AM 73.0 °F - 71.1 °F 93% 29.94 in 9.0 mi ESE 5.8 mph - N/A   Partly Cloudy
4:11 AM 73.4 °F - 71.6 °F 94% 29.95 in 6.0 mi SE 3.5 mph - 0.02 in Rain Rain
4:23 AM 73.4 °F - 71.6 °F 94% 29.95 in 10.0 mi SE 4.6 mph - 0.02 in   Overcast
4:52 AM 73.0 °F - 71.1 °F 93% 29.95 in 10.0 mi SE 4.6 mph - 0.02 in   Mostly Cloudy
5:52 AM 73.0 °F - 70.0 °F 90% 29.96 in 9.0 mi ESE 3.5 mph - N/A   Clear
6:52 AM 71.1 °F - 70.0 °F 96% 29.98 in 6.0 mi East 5.8 mph - 0.01 in   Partly Cloudy
7:52 AM 75.0 °F - 73.0 °F 94% 29.99 in 10.0 mi ESE 6.9 mph - N/A   Clear
8:52 AM 80.1 °F 84.5 °F 73.9 °F 81% 30.01 in 10.0 mi SE 12.7 mph - N/A   Clear
9:52 AM 80.1 °F 83.6 °F 71.1 °F 74% 30.03 in 10.0 mi SSE 9.2 mph - N/A   Overcast
10:52 AM 82.9 °F 87.0 °F 70.0 °F 65% 30.03 in 10.0 mi South 6.9 mph - N/A   Overcast
11:52 AM 86.0 °F 90.7 °F 70.0 °F 59% 30.02 in 10.0 mi South 8.1 mph - N/A   Mostly Cloudy
12:52 PM 84.9 °F 89.4 °F 70.0 °F 61% 30.00 in 10.0 mi West 12.7 mph - N/A   Mostly Cloudy
1:52 PM 84.9 °F 89.4 °F 70.0 °F 61% 29.98 in 10.0 mi NNW 4.6 mph - 0.00 in   Scattered Clouds
2:24 PM 80.6 °F 85.4 °F 73.4 °F 79% 29.99 in 10.0 mi East 12.7 mph 21.9 mph N/A   Mostly Cloudy
2:52 PM 79.0 °F - 71.1 °F 77% 30.00 in 10.0 mi ESE 13.8 mph - N/A   Scattered Clouds
3:52 PM 77.0 °F - 70.0 °F 79% 30.01 in 10.0 mi East 8.1 mph - N/A   Overcast
4:52 PM 73.9 °F - 70.0 °F 87% 30.02 in 10.0 mi SSE 9.2 mph - N/A   Mostly Cloudy
5:52 PM 73.0 °F - 69.1 °F 87% 30.03 in 10.0 mi South 3.5 mph - 0.00 in   Scattered Clouds
6:52 PM 73.0 °F - 70.0 °F 90% 30.06 in 10.0 mi ENE 3.5 mph - N/A   Mostly Cloudy
7:52 PM 73.9 °F - 71.1 °F 91% 30.08 in 10.0 mi NNW 4.6 mph - N/A   Overcast
8:08 PM 75.2 °F - 71.6 °F 89% 30.09 in 10.0 mi NNW 4.6 mph - N/A   Overcast
8:52 PM 73.0 °F - 70.0 °F 90% 30.12 in 10.0 mi North 15.0 mph - N/A   Overcast
9:00 PM 73.4 °F - 69.8 °F 88% 30.12 in 10.0 mi North 13.8 mph - N/A   Overcast
9:20 PM 73.4 °F - 69.8 °F 88% 30.12 in 9.0 mi North 20.7 mph 27.6 mph 0.01 in Rain Light Rain
9:52 PM 72.0 °F - 70.0 °F 93% 30.14 in 3.0 mi NNE 13.8 mph - 0.12 in Rain Heavy Rain
10:00 PM 71.6 °F - 69.8 °F 94% 30.14 in 2.5 mi North 20.7 mph 26.5 mph 0.10 in Rain Heavy Rain
10:02 PM 71.6 °F - 69.8 °F 94% 30.14 in 2.0 mi North 20.7 mph 26.5 mph 0.17 in Rain Heavy Rain
10:09 PM 71.6 °F - 69.8 °F 94% 30.15 in 1.5 mi North 11.5 mph - 0.30 in Rain Heavy Rain
10:20 PM 71.6 °F - 69.8 °F 94% 30.14 in 1.5 mi North 19.6 mph 24.2 mph 0.56 in Rain Heavy Rain
10:29 PM 71.6 °F - 69.8 °F 94% 30.14 in 2.5 mi North 21.9 mph 31.1 mph 0.65 in Rain Heavy Rain
10:34 PM 71.6 °F - 69.8 °F 94% 30.15 in 3.0 mi North 20.7 mph 28.8 mph 0.71 in Rain Heavy Rain
10:52 PM 71.1 °F - 69.1 °F 93% 30.15 in 4.0 mi NNE 18.4 mph 23.0 mph 0.84 in Rain Heavy Rain
10:59 PM 71.6 °F - 69.8 °F 94% 30.16 in 6.0 mi NNE 19.6 mph - 0.01 in Rain Rain
11:26 PM 69.8 °F - 68.0 °F 94% 30.16 in 6.0 mi NNE 18.4 mph 26.5 mph 0.10 in Rain Rain
11:52 PM 69.1 °F - 66.9 °F 93% 30.16 in 10.0 mi North 18.4 mph 25.3 mph 0.11 in Rain Light Rain